Content
SEND FEEDBACK

Daily
Averages
Monthly
Summary
United States of America

LAFAYETTE, ALABAMA


Home > North America > United States > Alabama
Elevation: 806 feet     Latitude: 32 54N     Longitude: 085 24W

WEATHER
 
SELECT A DAY
Number of Records: 452,339;   Date Range: 1/1/95 - 9/19/14
 
SHARE

PRINT THIS DATA

[ ← Previous Day ]
WEATHER ALMANAC - FEBRUARY 16, 2013
[ Next Day → ]
[ °C ]   °F
Weather ElementAverageHighLow
Temperature41.1 °F46.4 °F (10:35 am)30.2 °F (10:55 pm)
Dewpoint20.1 °F33.8 °F (12:35 am)8.6 °F (2:35 pm)
Humidity46 %70 % (2:55 am)23 % (2:15 pm)
Barometer30.05 in30.18 in (10:15 pm)29.97 in (3:15 am)
Wind Speed11.4 mph21.9 mph (11:15 am)
Wind Gust32.2 mph (3:15 pm)
Weather ElementAverage
Visibility10 mi
Wind DirectionNW (320.4 °)

Weather ElementTotal
Precipitation---
Heating Degree Days26.7 (Base 65)
Averaged from 70 records on February 16, 2013
WEATHER CONDITIONS BREAKOUT
WIND DIRECTION BREAKOUT
WEATHER BY HOUR - FEBRUARY 16, 2013
[ °C ]   °F
Local TimeTemperatureDewpointHumidityBarometerVisibilityWind DirectionWind SpeedGust SpeedPrecipitationEventsConditions
12:35 AM44.6 °F33.8 °F66 %30.00 in10.0 miNNW (330°)9.2 mphOvercast
12:55 AM44.6 °F33.8 °F66 %29.99 in10.0 miNNW (340°)8.1 mphOvercast
1:15 AM44.6 °F33.8 °F66 %29.99 in10.0 miNNW (330°)8.1 mphOvercast
1:35 AM44.6 °F33.8 °F66 %29.98 in10.0 miNNW (340°)6.9 mphOvercast
1:55 AM44.6 °F33.8 °F66 %29.98 in10.0 miNNW (340°)6.9 mphOvercast
2:15 AM44.6 °F33.8 °F66 %29.98 in10.0 miNW (320°)5.8 mphOvercast
2:35 AM44.6 °F33.8 °F66 %29.98 in10.0 miNW (320°)4.6 mphOvercast
2:55 AM42.8 °F33.8 °F70 %29.98 in10.0 miWNW (300°)4.6 mphOvercast
3:15 AM42.8 °F33.8 °F70 %29.97 in10.0 miWNW (300°)3.5 mphMostly Cloudy
3:35 AM44.6 °F33.8 °F66 %29.97 in10.0 miNNW (340°)3.5 mphOvercast
3:55 AM44.6 °F33.8 °F66 %29.97 in10.0 miNW (320°)4.6 mphOvercast
4:15 AM42.8 °F33.8 °F70 %29.98 in10.0 miNW (310°)5.8 mphOvercast
4:35 AM42.8 °F33.8 °F70 %29.99 in10.0 miNW (320°)8.1 mphOvercast
5:15 AM42.8 °F33.8 °F70 %29.99 in10.0 miNW (320°)10.4 mphOvercast
5:35 AM42.8 °F32.0 °F66 %30.00 in10.0 miNNW (340°)11.5 mphOvercast
5:55 AM42.8 °F32.0 °F66 %30.00 in10.0 miNNW (340°)9.2 mphOvercast
6:15 AM42.8 °F32.0 °F66 %29.99 in10.0 miNorth (360°)5.8 mphMostly Cloudy
6:35 AM42.8 °F30.2 °F61 %30.00 in10.0 miNorth (360°)4.6 mphOvercast
6:55 AM41.0 °F30.2 °F65 %30.01 in10.0 miNW (320°)5.8 mphOvercast
7:15 AM42.8 °F30.2 °F61 %30.02 in10.0 miNNW (340°)10.4 mphOvercast
7:35 AM41.0 °F28.4 °F61 %30.02 in10.0 miNNW (330°)9.2 mphOvercast
7:55 AM42.8 °F28.4 °F57 %30.03 in10.0 miNW (320°)15.0 mphScattered Clouds
8:15 AM42.8 °F28.4 °F57 %30.03 in10.0 miNNW (330°)12.7 mph21.9 mphPartly Cloudy
8:35 AM42.8 °F26.6 °F53 %30.04 in10.0 miNW (320°)13.8 mphScattered Clouds
8:55 AM42.8 °F24.8 °F49 %30.04 in10.0 miNNW (330°)15.0 mph23.0 mphMostly Cloudy
9:15 AM44.6 °F24.8 °F46 %30.05 in10.0 miNW (320°)17.3 mph23.0 mphScattered Clouds
9:35 AM44.6 °F21.2 °F39 %30.05 in10.0 miNW (320°)16.1 mph24.2 mphClear
9:55 AM44.6 °F19.4 °F37 %30.05 in10.0 miNW (320°)18.4 mph24.2 mphPartly Cloudy
10:15 AM44.6 °F17.6 °F34 %30.05 in10.0 miNW (320°)17.3 mph23.0 mphPartly Cloudy
10:35 AM46.4 °F15.8 °F29 %30.05 in10.0 miNW (320°)15.0 mph25.3 mphScattered Clouds
10:55 AM46.4 °F14.0 °F27 %30.05 in10.0 miNW (320°)20.7 mph31.1 mphScattered Clouds
11:15 AM44.6 °F14.0 °F29 %30.05 in10.0 miNW (310°)21.9 mph27.6 mphScattered Clouds
11:35 AM44.6 °F15.8 °F31 %30.04 in10.0 miNW (310°)18.4 mph27.6 mphPartly Cloudy
11:55 AM46.4 °F14.0 °F27 %30.04 in10.0 miNW (320°)17.3 mph27.6 mphMostly Cloudy
12:15 PM46.4 °F12.2 °F25 %30.03 in10.0 miWNW (290°)15.0 mph24.2 mphMostly Cloudy
12:35 PM46.4 °F12.2 °F25 %30.03 in10.0 miNW (310°)16.1 mph28.8 mphMostly Cloudy
12:55 PM44.6 °F12.2 °F27 %30.02 in10.0 miNW (320°)19.6 mph27.6 mphMostly Cloudy
1:15 PM44.6 °F12.2 °F27 %30.02 in10.0 miNW (310°)20.7 mph26.5 mphMostly Cloudy
1:35 PM42.8 °F12.2 °F29 %30.02 in10.0 miNW (310°)20.7 mph27.6 mphMostly Cloudy
1:55 PM46.4 °F12.2 °F25 %30.02 in10.0 miNNW (330°)15.0 mph29.9 mphOvercast
2:15 PM46.4 °F10.4 °F23 %30.02 in10.0 miNW (310°)20.7 mph27.6 mphOvercast
2:35 PM44.6 °F8.6 °F23 %30.02 in10.0 miWNW (300°)17.3 mph29.9 mphPartly Cloudy
2:56 PM44.6 °F8.6 °F23 %30.03 in10.0 miWNW (300°)18.4 mph27.6 mphScattered Clouds
3:15 PM44.6 °F8.6 °F23 %30.04 in10.0 miNW (310°)16.1 mph32.2 mphPartly Cloudy
3:35 PM42.8 °F8.6 °F25 %30.04 in10.0 miWNW (300°)18.4 mph31.1 mphMostly Cloudy
3:55 PM42.8 °F8.6 °F25 %30.05 in10.0 miNW (320°)18.4 mph24.2 mphMostly Cloudy
4:15 PM42.8 °F8.6 °F25 %30.05 in10.0 miNW (310°)19.6 mph24.2 mphMostly Cloudy
4:35 PM41.0 °F10.4 °F29 %30.06 in10.0 miNNW (340°)13.8 mph24.2 mphMostly Cloudy
4:55 PM41.0 °F8.6 °F26 %30.06 in10.0 miNW (320°)18.4 mph24.2 mphOvercast
5:15 PM39.2 °F8.6 °F28 %30.07 in10.0 miNW (310°)10.4 mph24.2 mphScattered Clouds
5:35 PM39.2 °F10.4 °F31 %30.07 in10.0 miNW (320°)11.5 mph19.6 mphScattered Clouds
5:55 PM37.4 °F12.2 °F36 %30.09 in10.0 miNNW (330°)10.4 mph18.4 mphPartly Cloudy
6:15 PM37.4 °F12.2 °F36 %30.09 in10.0 miNW (310°)9.2 mph16.1 mphMostly Cloudy
6:35 PM37.4 °F12.2 °F36 %30.10 in10.0 miNW (320°)8.1 mphScattered Clouds
6:55 PM37.4 °F12.2 °F36 %30.10 in10.0 miNNW (330°)6.9 mphClear
7:15 PM35.6 °F12.2 °F38 %30.11 in10.0 miNW (320°)8.1 mphClear
7:35 PM35.6 °F12.2 °F38 %30.13 in10.0 miNNW (330°)11.5 mphClear
7:55 PM35.6 °F12.2 °F38 %30.13 in10.0 miNNW (330°)10.4 mphClear
8:15 PM35.6 °F14.0 °F41 %30.14 in10.0 miNNW (330°)9.2 mphClear
8:35 PM35.6 °F15.8 °F44 %30.15 in10.0 miNNW (330°)9.2 mphClear
8:55 PM35.6 °F15.8 °F44 %30.15 in10.0 miNNW (330°)9.2 mphClear
9:15 PM33.8 °F15.8 °F48 %30.16 in10.0 miNW (320°)6.9 mphClear
9:35 PM33.8 °F15.8 °F48 %30.17 in10.0 miNW (320°)6.9 mphClear
9:55 PM33.8 °F15.8 °F48 %30.17 in10.0 miNW (320°)6.9 mphClear
10:15 PM32.0 °F17.6 °F55 %30.18 in10.0 miNW (310°)5.8 mphClear
10:35 PM32.0 °F17.6 °F55 %30.18 in10.0 miNW (310°)5.8 mphClear
10:55 PM30.2 °F17.6 °F60 %30.17 in10.0 miWNW (300°)4.6 mphClear
11:15 PM30.2 °F15.8 °F55 %30.17 in10.0 miWNW (290°)3.5 mphClear
11:35 PM30.2 °F17.6 °F60 %30.18 in10.0 miWNW (300°)3.5 mphClear
11:55 PM30.2 °F17.6 °F60 %30.17 in10.0 miNW (310°)6.9 mphClear
Hourly data recorded from KAUO, located miles away from Lafayette, Alabama







STORIES FROM OUR PARTNERS